CCSDS_OMM_VERS = 2.0 CREATION_DATE = ORIGINATOR = OBJECT_NAME = COSMOS 1408 DEB OBJECT_ID = 1982-092RU CENTER_NAME = EARTH REF_FRAME = TEME TIME_SYSTEM = UTC MEAN_ELEMENT_THEORY = SGP/SGP4 EPOCH = 2026-09-11T17:11:53.343168 MEAN_MOTION = 15.48346627 ECCENTRICITY = .00134273 INCLINATION = 82.5633 RA_OF_ASC_NODE = 138.0985 ARG_OF_PERICENTER = 304.4763 MEAN_ANOMALY = 55.5218 EPHEMERIS_TYPE = 0 CLASSIFICATION_TYPE = U NORAD_CAT_ID = 50032 ELEMENT_SET_NO = 999 REV_AT_EPOCH = 26824 BSTAR = .65617E-4 MEAN_MOTION_DOT = .35240E-4 MEAN_MOTION_DDOT = 0 CCSDS_OMM_VERS = 2.0 CREATION_DATE = ORIGINATOR = OBJECT_NAME = COSMOS 1408 DEB OBJECT_ID = 1982-092SW CENTER_NAME = EARTH REF_FRAME = TEME TIME_SYSTEM = UTC MEAN_ELEMENT_THEORY = SGP/SGP4 EPOCH = 2026-09-12T02:19:06.834432 MEAN_MOTION = 15.95782759 ECCENTRICITY = .0009168 INCLINATION = 82.6045 RA_OF_ASC_NODE = 137.5505 ARG_OF_PERICENTER = 128.5158 MEAN_ANOMALY = 231.6942 EPHEMERIS_TYPE = 0 CLASSIFICATION_TYPE = U NORAD_CAT_ID = 50058 ELEMENT_SET_NO = 999 REV_AT_EPOCH = 27112 BSTAR = .31290E-3 MEAN_MOTION_DOT = .12650E-2 MEAN_MOTION_DDOT = .48300E-5 CCSDS_OMM_VERS = 2.0 CREATION_DATE = ORIGINATOR = OBJECT_NAME = COSMOS 1408 DEB OBJECT_ID = 1982-092ALR CENTER_NAME = EARTH REF_FRAME = TEME TIME_SYSTEM = UTC MEAN_ELEMENT_THEORY = SGP/SGP4 EPOCH = 2026-09-11T17:41:56.855040 MEAN_MOTION = 15.76194243 ECCENTRICITY = .0015321 INCLINATION = 82.5644 RA_OF_ASC_NODE = 145.9137 ARG_OF_PERICENTER = 201.0136 MEAN_ANOMALY = 159.0501 EPHEMERIS_TYPE = 0 CLASSIFICATION_TYPE = U NORAD_CAT_ID = 50621 ELEMENT_SET_NO = 999 REV_AT_EPOCH = 26522 BSTAR = .26479E-3 MEAN_MOTION_DOT = .41808E-3 MEAN_MOTION_DDOT = 0